GW3570 Weather Reports


Display with metric or nautical units.
time (UTC)temp
F
wind
direction
speed
MPH
gust
MPH
rain 1hr
in
rain 24hr
in
rain mn
in
humidity
%
barometer
mb
20260905233015 98 13 1.0 1.0 0.00 0.00 0.00 41 1012.4
20260905232511 99 233 0.0 0.0 0.00 0.00 0.00 42 1012.4
20260905232007 99 256 0.0 0.0 0.00 0.00 0.00 42 1012.3
20260905231502 99 292 2.0 2.0 0.00 0.00 0.00 41 1012.6
20260905230958 99 218 2.0 2.0 0.00 0.00 0.00 40 1012.6
20260905230456 100 255 1.0 1.0 0.00 0.00 0.00 39 1012.3
20260905225954 100 177 1.0 1.0 0.00 0.00 0.00 39 1012.0
20260905225450 100 194 0.0 1.0 0.00 0.00 0.00 39 1012.1
20260905224945 100 208 2.0 2.0 0.00 0.00 0.00 38 1012.4
20260905224440 101 336 1.0 2.0 0.00 0.00 0.00 38 1012.2
20260905223939 100 274 1.0 1.0 0.00 0.00 0.00 38 1012.4
20260905223437 101 264 2.0 2.0 0.00 0.00 0.00 38 1012.2
20260905222932 101 39 1.0 2.0 0.00 0.00 0.00 38 1012.5
20260905222432 101 336 3.0 3.0 0.00 0.00 0.00 37 1012.4
20260905221928 103 308 5.0 7.0 0.00 0.00 0.00 37 1012.3
20260905221424 103 44 2.0 2.0 0.00 0.00 0.00 36 1012.5
20260905220920 102 217 0.0 1.0 0.00 0.00 0.00 35 1012.2
20260905220416 103 264 3.0 5.0 0.00 0.00 0.00 35 1012.5
20260905215915 103 184 0.0 1.0 0.00 0.00 0.00 35 1012.5
20260905215411 103 170 0.0 1.0 0.00 0.00 0.00 35 1012.5
20260905214907 103 324 2.0 2.0 0.00 0.00 0.00 35 1012.5
20260905214403 104 132 3.0 3.0 0.00 0.00 0.00 35 1012.4
20260905213857 103 263 1.0 1.0 0.00 0.00 0.00 36 1012.7
20260905213354 103 324 1.0 2.0 0.00 0.00 0.00 36 1012.6
20260905212854 103 263 2.0 5.0 0.00 0.00 0.00 37 1012.4
20260905212354 101 210 0.0 0.0 0.00 0.00 0.00 38 1012.8
20260905211848 100 287 2.0 3.0 0.00 0.00 0.00 39 1012.6
20260905211343 102 233 3.0 3.0 0.00 0.00 0.00 37 1012.9
20260905210839 104 268 4.0 5.0 0.00 0.00 0.00 35 1012.8
20260905210334 103 200 1.0 2.0 0.00 0.00 0.00 36 1012.6
20260905205832 104 282 2.0 2.0 0.00 0.00 0.00 36 1012.9
20260905205327 103 62 0.0 1.0 0.00 0.00 0.00 35 1012.9
20260905204827 103 55 3.0 3.0 0.00 0.00 0.00 34 1012.9
20260905204323 102 162 0.0 1.0 0.00 0.00 0.00 35 1012.8
20260905203821 102 223 3.0 3.0 0.00 0.00 0.00 36 1012.9
20260905203318 104 203 1.0 2.0 0.00 0.00 0.00 34 1013.1
20260905202813 104 127 0.0 1.0 0.00 0.00 0.00 33 1013.1
20260905202308 103 174 0.0 1.0 0.00 0.00 0.00 34 1013.2
20260905201803 103 189 1.0 1.0 0.00 0.00 0.00 35 1013.2
20260905201259 103 285 2.0 2.0 0.00 0.00 0.00 35 1013.4
20260905200753 102 326 0.0 0.0 0.00 0.00 0.00 36 1013.4
20260905200249 103 278 2.0 5.0 0.00 0.00 0.00 36 1013.4
20260905195747 104 244 1.0 2.0 0.00 0.00 0.00 35 1013.5
20260905195242 104 214 1.0 2.0 0.00 0.00 0.00 35 1013.7
20260905194738 104 122 2.0 2.0 0.00 0.00 0.00 36 1013.5
20260905194237 104 132 2.0 2.0 0.00 0.00 0.00 35 1013.7
20260905193737 103 116 2.0 3.0 0.00 0.00 0.00 36 1013.8
20260905193231 104 129 2.0 2.0 0.00 0.00 0.00 35 1013.9
20260905192727 103 226 0.0 1.0 0.00 0.00 0.00 35 1013.8
20260905192223 102 275 3.0 3.0 0.00 0.00 0.00 36 1014.1
20260905191722 103 184 1.0 2.0 0.00 0.00 0.00 36 1014.1
20260905191220 103 349 2.0 3.0 0.00 0.00 0.00 35 1014.1
20260905190719 102 87 3.0 3.0 0.00 0.00 0.00 37 1014.1
20260905190218 104 280 3.0 3.0 0.00 0.00 0.00 36 1014.1
20260905185717 103 184 1.0 1.0 0.00 0.00 0.00 38 1014.4
20260905185212 102 178 2.0 2.0 0.00 0.00 0.00 40 1014.3
20260905184707 101 197 2.0 2.0 0.00 0.00 0.00 40 1014.3
20260905184206 102 194 4.0 5.0 0.00 0.00 0.00 38 1014.3
20260905183700 103 181 5.0 6.0 0.00 0.00 0.00 38 1014.4
20260905183155 103 159 3.0 3.0 0.00 0.00 0.00 38 1014.7
20260905182655 102 140 3.0 3.0 0.00 0.00 0.00 40 1014.6
20260905182154 102 160 0.0 1.0 0.00 0.00 0.00 37 1014.8
20260905181650 102 129 3.0 3.0 0.00 0.00 0.00 37 1015.0
20260905181148 101 215 1.0 1.0 0.00 0.00 0.00 42 1014.9
20260905180643 99 167 3.0 3.0 0.00 0.00 0.00 46 1014.9
20260905180138 101 125 3.0 3.0 0.00 0.00 0.00 45 1015.0
20260905175632 100 199 3.0 3.0 0.00 0.00 0.00 42 1014.9
20260905175128 99 165 2.0 2.0 0.00 0.00 0.00 49 1015.1
20260905174624 100 196 4.0 5.0 0.00 0.00 0.00 44 1015.2
20260905174119 100 176 2.0 2.0 0.00 0.00 0.00 47 1015.2
20260905173615 99 256 4.0 5.0 0.00 0.00 0.00 43 1015.3
20260905173110 98 165 1.0 2.0 0.00 0.00 0.00 49 1015.6
20260905172608 98 165 3.0 3.0 0.00 0.00 0.00 49 1015.5
20260905172103 98 148 3.0 3.0 0.00 0.00 0.00 48 1015.5
20260905171600 97 153 2.0 2.0 0.00 0.00 0.00 48 1015.6
20260905171055 96 129 3.0 3.0 0.00 0.00 0.00 49 1015.6
20260905170552 96 150 3.0 3.0 0.00 0.00 0.00 52 1015.8
20260905170047 96 161 3.0 3.0 0.00 0.00 0.00 49 1015.7
20260905165542 95 159 3.0 3.0 0.00 0.00 0.00 53 1015.8
20260905165037 95 143 3.0 3.0 0.00 0.00 0.00 56 1016.0
20260905164532 95 117 3.0 3.0 0.00 0.00 0.00 54 1016.0
20260905164027 95 139 3.0 3.0 0.00 0.00 0.00 57 1016.1
20260905163522 95 148 3.0 3.0 0.00 0.00 0.00 56 1016.0
20260905163018 95 169 3.0 3.0 0.00 0.00 0.00 53 1015.9
20260905162514 95 179 3.0 3.0 0.00 0.00 0.00 52 1016.0
20260905162008 94 202 3.0 3.0 0.00 0.00 0.00 54 1016.3
20260905161503 94 209 2.0 2.0 0.00 0.00 0.00 55 1016.1
20260905161000 93 234 3.0 3.0 0.00 0.00 0.00 54 1015.8
20260905160454 94 262 3.0 5.0 0.00 0.00 0.00 53 1016.2
20260905155953 93 152 0.0 0.0 0.00 0.00 0.00 58 1016.1
20260905155448 93 133 1.0 2.0 0.00 0.00 0.00 56 1016.0
20260905154942 92 189 2.0 2.0 0.00 0.00 0.00 58 1016.0
20260905154437 91 148 2.0 2.0 0.00 0.00 0.00 60 1016.1
20260905153932 91 143 1.0 2.0 0.00 0.00 0.00 59 1016.2
20260905153429 90 187 1.0 2.0 0.00 0.00 0.00 59 1015.9
20260905152927 90 136 1.0 2.0 0.00 0.00 0.00 64 1016.2
20260905152427 89 166 1.0 1.0 0.00 0.00 0.00 63 1015.9
20260905151922 88 195 3.0 3.0 0.00 0.00 0.00 64 1016.2
20260905151418 88 184 2.0 2.0 0.00 0.00 0.00 67 1016.1
20260905150919 88 196 2.0 2.0 0.00 0.00 0.00 67 1016.1
20260905150418 88 157 3.0 3.0 0.00 0.00 0.00 70 1016.2
20260905145915 87 181 1.0 2.0 0.00 0.00 0.00 68 1016.0
20260905145409 87 171 0.0 0.0 0.00 0.00 0.00 69 1016.2
20260905144909 86 192 1.0 1.0 0.00 0.00 0.00 71 1016.0
20260905144405 86 168 0.0 0.0 0.00 0.00 0.00 73 1016.1
20260905143903 86 161 2.0 2.0 0.00 0.00 0.00 72 1015.9
20260905143357 86 143 2.0 2.0 0.00 0.00 0.00 72 1016.0
20260905142857 86 163 0.0 0.0 0.00 0.00 0.00 72 1015.8
20260905142355 85 144 0.0 0.0 0.00 0.00 0.00 74 1016.1
20260905141852 85 162 1.0 1.0 0.00 0.00 0.00 73 1015.8
20260905141347 85 163 1.0 1.0 0.00 0.00 0.00 73 1015.7
20260905140843 84 190 0.0 0.0 0.00 0.00 0.00 74 1015.9
20260905140337 84 193 0.0 0.0 0.00 0.00 0.00 74 1015.7
20260905135835 84 202 0.0 0.0 0.00 0.00 0.00 72 1015.6
20260905135326 84 178 0.0 0.0 0.00 0.00 0.00 73 1015.8
20260905134821 84 158 0.0 0.0 0.00 0.00 0.00 73 1015.8
20260905134314 82 115 0.0 0.0 0.00 0.00 0.00 78 1015.6
20260905133809 80 64 0.0 0.0 0.00 0.00 0.00 83 1015.7
20260905133305 79 170 0.0 0.0 0.00 0.00 0.00 87 1015.6
20260905132803 78 176 0.0 0.0 0.00 0.00 0.00 91 1015.6
20260905132259 77 169 0.0 0.0 0.00 0.00 0.00 93 1015.5
20260905131754 76 165 0.0 0.0 0.00 0.00 0.00 93 1015.5
20260905131249 76 163 0.0 0.0 0.00 0.00 0.00 93 1015.8
20260905130744 75 182 0.0 0.0 0.00 0.00 0.00 93 1015.5
20260905130243 75 218 0.0 0.0 0.00 0.00 0.00 94 1015.5
20260905125738 75 182 0.0 0.0 0.00 0.00 0.00 94 1015.6
20260905125233 75 187 0.0 0.0 0.00 0.00 0.00 94 1015.5
20260905124730 74 190 0.0 0.0 0.00 0.00 0.00 95 1015.3
20260905124226 74 213 0.0 0.0 0.00 0.00 0.00 94 1015.2
20260905123725 74 225 0.0 0.0 0.00 0.00 0.00 95 1015.2
20260905123223 74 208 0.0 0.0 0.00 0.00 0.00 95 1015.0
20260905122722 74 132 0.0 0.0 0.00 0.00 0.00 95 1015.1
20260905122216 74 170 0.0 0.0 0.00 0.00 0.00 94 1015.0
20260905121712 73 169 0.0 0.0 0.00 0.00 0.00 94 1014.8
20260905121209 73 206 0.0 0.0 0.00 0.00 0.00 94 1014.9
20260905120707 74 188 0.0 0.0 0.00 0.00 0.00 94 1015.0
20260905120202 74 190 0.0 0.0 0.00 0.00 0.00 94 1014.8
20260905115701 73 272 0.0 0.0 0.00 0.00 0.00 94 1014.9
20260905115156 73 259 0.0 0.0 0.00 0.00 0.00 94 1014.8
20260905114656 73 256 0.0 0.0 0.00 0.00 0.00 94 1014.9
20260905114154 73 232 0.0 0.0 0.00 0.00 0.00 94 1014.5
20260905113649 73 310 0.0 0.0 0.00 0.00 0.00 94 1014.8
20260905113145 73 310 0.0 0.0 0.00 0.00 0.00 94 1014.5
20260905112644 74 264 0.0 0.0 0.00 0.00 0.00 94 1014.5
20260905112141 74 306 0.0 0.0 0.00 0.00 0.00 94 1014.4
20260905111640 74 297 0.0 0.0 0.00 0.00 0.00 94 1014.5
20260905111139 74 275 0.0 0.0 0.00 0.00 0.00 94 1014.3
20260905110638 74 233 0.0 0.0 0.00 0.00 0.00 94 1014.4
20260905110134 74 202 0.0 0.0 0.00 0.00 0.00 94 1014.4
20260905105629 74 156 0.0 0.0 0.00 0.00 0.00 94 1014.4
20260905105128 74 120 0.0 0.0 0.00 0.00 0.00 94 1014.7
20260905104623 74 256 0.0 0.0 0.00 0.00 0.00 94 1014.7
20260905104119 74 256 0.0 0.0 0.00 0.00 0.00 93 1014.4
20260905103614 74 206 0.0 0.0 0.00 0.00 0.00 93 1014.4
20260905103110 74 327 0.0 0.0 0.00 0.00 0.00 93 1014.4
20260905102600 75 348 0.0 0.0 0.00 0.00 0.00 94 1014.4
20260905102057 74 156 0.0 0.0 0.00 0.00 0.00 94 1014.5
20260905101554 74 303 0.0 0.0 0.00 0.00 0.00 94 1014.4
20260905101052 74 284 0.0 0.0 0.00 0.00 0.00 93 1014.7
20260905100544 74 305 0.0 0.0 0.00 0.00 0.00 93 1014.4
20260905100043 75 320 0.0 0.0 0.00 0.00 0.00 94 1014.4
20260905095537 75 52 0.0 0.0 0.00 0.00 0.00 94 1014.3
20260905095033 75 157 0.0 0.0 0.00 0.00 0.00 93 1014.3
20260905094528 75 237 0.0 0.0 0.00 0.00 0.00 93 1014.3
20260905094027 75 227 0.0 0.0 0.00 0.00 0.00 93 1014.3
20260905093516 75 235 0.0 0.0 0.00 0.00 0.00 93 1014.3
20260905093013 75 241 0.0 0.0 0.00 0.00 0.00 93 1014.5
20260905092513 75 146 0.0 0.0 0.00 0.00 0.00 93 1014.5
20260905092009 75 136 0.0 0.0 0.00 0.00 0.00 93 1014.4
20260905091507 75 160 0.0 0.0 0.00 0.00 0.00 93 1014.4
20260905091003 75 188 0.0 0.0 0.00 0.00 0.00 93 1014.4
20260905090457 75 209 0.0 0.0 0.00 0.00 0.00 92 1014.2
20260905085956 75 187 0.0 0.0 0.00 0.00 0.00 92 1014.2
20260905085456 75 24 0.0 0.0 0.00 0.00 0.00 92 1014.3
20260905084951 75 38 0.0 0.0 0.00 0.00 0.00 93 1014.1
20260905084451 75 68 0.0 0.0 0.00 0.00 0.00 93 1014.2
20260905083945 75 317 0.0 0.0 0.00 0.00 0.00 92 1014.1
20260905083442 75 304 0.0 0.0 0.00 0.00 0.00 92 1013.9
20260905082937 75 305 0.0 0.0 0.00 0.00 0.00 92 1014.1
20260905082433 76 308 0.0 0.0 0.00 0.00 0.00 92 1013.9
20260905081928 76 0 0.0 0.0 0.00 0.00 0.00 92 1013.8
20260905081427 75 229 0.0 0.0 0.00 0.00 0.00 92 1014.2
20260905080926 76 247 0.0 0.0 0.00 0.00 0.00 92 1014.0
20260905080421 76 140 0.0 0.0 0.00 0.00 0.00 93 1014.1
20260905075920 76 189 0.0 0.0 0.00 0.00 0.00 93 1014.1
20260905075415 76 232 0.0 0.0 0.00 0.00 0.00 92 1013.8
20260905074914 76 316 0.0 0.0 0.00 0.00 0.00 92 1014.1
20260905074409 76 318 0.0 0.0 0.00 0.00 0.00 92 1013.9
20260905073905 76 300 0.0 0.0 0.00 0.00 0.00 92 1014.1
20260905073400 76 289 0.0 0.0 0.00 0.00 0.00 92 1014.0
20260905072855 76 202 0.0 0.0 0.00 0.00 0.00 92 1013.9
20260905072350 77 247 0.0 0.0 0.00 0.00 0.00 92 1014.2
20260905071846 77 226 0.0 0.0 0.00 0.00 0.00 92 1014.1
20260905071337 76 341 0.0 0.0 0.00 0.00 0.00 92 1014.0
20260905070831 76 337 0.0 0.0 0.00 0.00 0.00 92 1014.3
20260905070328 77 298 0.0 0.0 0.00 0.00 0.00 91 1014.1
20260905065826 77 253 0.0 0.0 0.00 0.00 0.00 91 1014.2
20260905065325 76 258 0.0 0.0 0.00 0.00 0.00 92 1014.4
20260905064820 76 148 0.0 0.0 0.00 0.00 0.00 92 1014.2
20260905064317 76 280 0.0 0.0 0.00 0.00 0.00 92 1014.4
20260905063815 77 296 0.0 0.0 0.00 0.00 0.00 91 1014.1
20260905063311 77 130 0.0 0.0 0.00 0.00 0.00 91 1014.4
20260905062807 77 194 0.0 0.0 0.00 0.00 0.00 91 1014.3
20260905062307 77 129 0.0 0.0 0.00 0.00 0.00 91 1014.6
20260905061802 77 305 2.0 2.0 0.00 0.00 0.00 90 1014.2
20260905061256 77 101 0.0 0.0 0.00 0.00 0.00 90 1014.5
20260905060756 77 98 0.0 0.0 0.00 0.00 0.00 90 1014.3
20260905060253 77 110 0.0 0.0 0.00 0.00 0.00 90 1014.2
20260905055751 77 196 0.0 0.0 0.00 0.00 0.00 90 1014.0
20260905055246 77 262 0.0 0.0 0.00 0.00 0.00 89 1014.2
20260905054741 77 200 0.0 0.0 0.00 0.00 0.00 89 1014.3
20260905054238 77 149 0.0 0.0 0.00 0.00 0.00 89 1014.2
20260905053737 77 187 0.0 0.0 0.00 0.00 0.00 89 1014.1
20260905053232 77 203 0.0 0.0 0.00 0.00 0.00 89 1014.2
20260905052726 78 209 0.0 0.0 0.00 0.00 0.00 88 1014.0
20260905052221 78 213 0.0 0.0 0.00 0.00 0.00 88 1013.9
20260905051721 78 204 0.0 0.0 0.00 0.00 0.00 88 1014.0
20260905051218 78 160 0.0 0.0 0.00 0.00 0.00 88 1013.9
20260905050714 78 230 0.0 0.0 0.00 0.00 0.00 88 1013.9
20260905050211 78 228 0.0 0.0 0.00 0.00 0.00 87 1013.9
20260905045710 78 170 0.0 0.0 0.00 0.00 0.00 87 1013.9
20260905045206 78 174 0.0 0.0 0.00 0.00 0.00 87 1014.0
20260905044700 78 200 0.0 0.0 0.00 0.00 0.00 86 1014.1
20260905044155 79 212 0.0 0.0 0.00 0.00 0.00 85 1013.9
20260905043654 79 157 0.0 0.0 0.00 0.00 0.00 85 1014.2
20260905043149 79 164 0.0 0.0 0.00 0.00 0.00 85 1014.0
20260905042649 79 228 0.0 0.0 0.00 0.00 0.00 84 1014.2
20260905042148 79 242 0.0 0.0 0.00 0.00 0.00 83 1014.0
20260905041644 79 267 0.0 0.0 0.00 0.00 0.00 84 1014.2
20260905041139 79 226 0.0 0.0 0.00 0.00 0.00 84 1014.2
20260905040634 80 233 0.0 0.0 0.00 0.00 0.00 83 1014.3
20260905040132 80 243 0.0 0.0 0.00 0.00 0.00 81 1014.0
20260905035628 80 254 0.0 0.0 0.00 0.00 0.00 81 1014.1
20260905035119 80 239 0.0 0.0 0.00 0.00 0.00 81 1014.2
20260905034614 80 219 0.0 0.0 0.00 0.00 0.00 81 1014.2
20260905034108 80 232 0.0 0.0 0.00 0.00 0.00 80 1014.1
20260905033608 80 221 0.0 0.0 0.00 0.00 0.00 80 1014.1
20260905033103 81 205 0.0 0.0 0.00 0.00 0.00 79 1014.0
20260905032603 81 191 0.0 0.0 0.00 0.00 0.00 78 1014.2
20260905032058 81 196 0.0 0.0 0.00 0.00 0.00 78 1014.0
20260905031554 81 181 0.0 0.0 0.00 0.00 0.00 77 1014.0
20260905031054 81 212 0.0 0.0 0.00 0.00 0.00 76 1014.1
20260905030549 82 210 0.0 0.0 0.00 0.00 0.00 74 1014.0
20260905030043 82 202 0.0 0.0 0.00 0.00 0.00 76 1014.1
20260905025538 82 204 0.0 0.0 0.00 0.00 0.00 76 1013.8
20260905025035 82 146 0.0 0.0 0.00 0.00 0.00 76 1013.9
20260905024530 82 200 0.0 0.0 0.00 0.00 0.00 73 1013.9
20260905024025 82 221 0.0 0.0 0.00 0.00 0.00 73 1013.8
20260905023520 83 214 0.0 0.0 0.00 0.00 0.00 74 1013.9
20260905023015 83 236 0.0 0.0 0.00 0.00 0.00 73 1013.8
20260905022509 83 221 0.0 0.0 0.00 0.00 0.00 74 1013.7
20260905022005 83 177 0.0 0.0 0.00 0.00 0.00 75 1013.6
20260905021505 84 166 0.0 0.0 0.00 0.00 0.00 75 1013.8
20260905020959 84 154 0.0 0.0 0.00 0.00 0.00 74 1013.5
20260905020453 84 185 0.0 0.0 0.00 0.00 0.00 74 1013.6
20260905015948 84 152 0.0 0.0 0.00 0.00 0.00 73 1013.6
20260905015446 84 194 0.0 0.0 0.00 0.00 0.00 71 1013.5
20260905014944 85 261 0.0 0.0 0.00 0.00 0.00 69 1013.2
20260905014440 86 173 0.0 0.0 0.00 0.00 0.00 68 1013.2
20260905013935 86 125 0.0 0.0 0.00 0.00 0.00 69 1013.3
20260905013432 86 131 0.0 0.0 0.00 0.00 0.00 68 1013.4
20260905012927 86 159 0.0 0.0 0.00 0.00 0.00 67 1013.1
20260905012422 87 210 0.0 0.0 0.00 0.00 0.00 62 1013.2
20260905011919 87 140 0.0 0.0 0.00 0.00 0.00 63 1013.1
20260905011415 87 187 0.0 0.0 0.00 0.00 0.00 60 1012.9
20260905010909 87 223 0.0 0.0 0.00 0.00 0.00 58 1012.7
20260905010405 88 213 0.0 0.0 0.00 0.00 0.00 57 1012.8
20260905005900 88 161 0.0 0.0 0.00 0.00 0.00 56 1012.8
20260905005356 89 244 0.0 0.0 0.00 0.00 0.00 56 1012.8
20260905004851 89 209 0.0 0.0 0.00 0.00 0.00 55 1012.8
20260905004346 90 284 0.0 0.0 0.00 0.00 0.00 55 1012.7
20260905003841 91 292 0.0 0.0 0.00 0.00 0.00 54 1012.8
20260905003337 91 8 0.0 0.0 0.00 0.00 0.00 51 1012.5
20260905002832 92 339 1.0 1.0 0.00 0.00 0.00 51 1012.7
20260905002326 93 345 1.0 1.0 0.00 0.00 0.00 50 1012.4
20260905001821 93 270 0.0 0.0 0.00 0.00 0.00 50 1012.8
20260905001321 94 215 0.0 0.0 0.00 0.00 0.00 49 1012.7
20260905000816 95 207 0.0 0.0 0.00 0.00 0.00 48 1012.9
20260905000306 96 175 0.0 0.0 0.00 0.00 0.00 48 1012.7
20260904235801 96 128 1.0 2.0 0.00 0.00 0.00 44 1012.9
20260904235256 97 121 2.0 2.0 0.00 0.00 0.00 45 1012.8
20260904234751 97 115 1.0 1.0 0.00 0.00 0.00 44 1012.8
20260904234246 97 117 2.0 2.0 0.00 0.00 0.00 41 1012.6
20260904233742 98 129 0.0 0.0 0.00 0.00 0.00 42 1012.9
20260904233238 98 138 3.0 3.0 0.00 0.00 0.00 39 1012.8